Time,TemperatureF,DewpointF,PressureIn,WindDirection,WindDirectionDegrees,WindSpeedMPH,WindSpeedGustMPH,Humidity,HourlyPrecipIn,Conditions,Clouds,dailyrainin,SoftwareType,DateUTC
2013-12-07 00:00:00,24.0,12.0,30.31,NW,310,9.0,-999.0,61,-99.99,,,-99.99,,2013-12-07 00:00:00,
2013-12-07 00:42:00,24.0,12.0,30.31,NW,310,9.0,-999.0,61,-99.99,,,-99.99,,2013-12-07 00:42:00,
2013-12-07 00:52:00,24.0,12.0,30.31,NW,310,9.0,-999.0,61,-99.99,,,-99.99,,2013-12-07 00:52:00,
2013-12-07 01:00:00,23.0,13.0,30.32,NW,320,9.0,-999.0,64,-99.99,,,-99.99,,2013-12-07 01:00:00,
2013-12-07 01:42:00,23.0,13.0,30.32,NW,320,9.0,-999.0,64,-99.99,,,-99.99,,2013-12-07 01:42:00,
2013-12-07 01:52:00,23.0,13.0,30.32,NW,320,9.0,-999.0,64,-99.99,,,-99.99,,2013-12-07 01:52:00,
2013-12-07 02:00:00,23.0,13.0,30.33,WNW,290,10.0,-999.0,64,-99.99,,,-99.99,,2013-12-07 02:00:00,
2013-12-07 02:42:00,23.0,13.0,30.33,WNW,290,10.0,-999.0,64,-99.99,,,-99.99,,2013-12-07 02:42:00,
2013-12-07 02:52:00,23.0,13.0,30.33,WNW,290,10.0,-999.0,64,-99.99,,,-99.99,,2013-12-07 02:52:00,
2013-12-07 03:00:00,23.0,12.0,30.34,WNW,300,9.0,-999.0,63,-99.99,,,-99.99,,2013-12-07 03:00:00,
2013-12-07 03:43:00,23.0,12.0,30.34,WNW,300,9.0,-999.0,63,-99.99,,,-99.99,,2013-12-07 03:43:00,
2013-12-07 03:53:00,23.0,12.0,30.34,WNW,300,9.0,-999.0,63,-99.99,,,-99.99,,2013-12-07 03:53:00,
2013-12-07 04:00:00,22.0,12.0,30.36,WNW,300,8.0,-999.0,65,-99.99,,,-99.99,,2013-12-07 04:00:00,
2013-12-07 04:43:00,22.0,12.0,30.36,WNW,300,8.0,-999.0,65,-99.99,,,-99.99,,2013-12-07 04:43:00,
2013-12-07 04:52:00,22.0,12.0,30.36,WNW,300,8.0,-999.0,65,-99.99,,,-99.99,,2013-12-07 04:52:00,
2013-12-07 05:00:00,21.0,12.0,30.39,WNW,290,7.0,-999.0,68,-99.99,,,-99.99,,2013-12-07 05:00:00,
2013-12-07 05:42:00,21.0,12.0,30.39,WNW,290,7.0,-999.0,68,-99.99,,,-99.99,,2013-12-07 05:42:00,
2013-12-07 05:53:00,21.0,12.0,30.39,WNW,290,7.0,-999.0,68,-99.99,,,-99.99,,2013-12-07 05:53:00,
2013-12-07 06:00:00,20.0,12.0,30.40,West,280,7.0,-999.0,72,-99.99,,,-99.99,,2013-12-07 06:00:00,
2013-12-07 06:42:00,20.0,12.0,30.40,West,280,7.0,-999.0,72,-99.99,,,-99.99,,2013-12-07 06:42:00,
2013-12-07 06:53:00,20.0,12.0,30.40,West,280,7.0,-999.0,72,-99.99,,,-99.99,,2013-12-07 06:53:00,
2013-12-07 07:00:00,19.0,12.0,30.40,West,280,7.0,-999.0,73,-99.99,,,-99.99,,2013-12-07 07:00:00,
2013-12-07 07:42:00,19.0,12.0,30.40,West,280,7.0,-999.0,73,-99.99,,,-99.99,,2013-12-07 07:42:00,
2013-12-07 07:52:00,19.0,12.0,30.40,West,280,7.0,-999.0,73,-99.99,,,-99.99,,2013-12-07 07:52:00,
2013-12-07 08:00:00,18.0,11.0,30.43,West,280,8.0,-999.0,71,-99.99,,,-99.99,,2013-12-07 08:00:00,
2013-12-07 08:42:00,18.0,11.0,30.43,West,280,8.0,-999.0,71,-99.99,,,-99.99,,2013-12-07 08:42:00,
2013-12-07 08:52:00,18.0,11.0,30.43,West,280,8.0,-999.0,71,-99.99,,,-99.99,,2013-12-07 08:52:00,
2013-12-07 09:00:00,17.0,10.0,30.45,WNW,290,8.0,-999.0,71,-99.99,,,-99.99,,2013-12-07 09:00:00,
2013-12-07 09:43:00,17.0,10.0,30.45,WNW,290,8.0,-999.0,71,-99.99,,,-99.99,,2013-12-07 09:43:00,
2013-12-07 09:53:00,17.0,10.0,30.45,WNW,290,8.0,-999.0,71,-99.99,,,-99.99,,2013-12-07 09:53:00,
2013-12-07 10:00:00,17.0,10.0,30.46,West,270,8.0,-999.0,73,-99.99,,,-99.99,,2013-12-07 10:00:00,
2013-12-07 10:42:00,17.0,10.0,30.46,West,270,8.0,-999.0,73,-99.99,,,-99.99,,2013-12-07 10:42:00,
2013-12-07 10:52:00,17.0,10.0,30.46,West,270,8.0,-999.0,73,-99.99,,,-99.99,,2013-12-07 10:52:00,
2013-12-07 11:00:00,17.0,9.0,30.48,West,270,7.0,-999.0,69,-99.99,,,-99.99,,2013-12-07 11:00:00,
2013-12-07 11:42:00,17.0,9.0,30.48,West,270,7.0,-999.0,69,-99.99,,,-99.99,,2013-12-07 11:42:00,
2013-12-07 11:52:00,17.0,9.0,30.48,West,270,7.0,-999.0,69,-99.99,,,-99.99,,2013-12-07 11:52:00,
2013-12-07 12:00:00,17.0,9.0,30.50,West,270,7.0,-999.0,71,-99.99,,,-99.99,,2013-12-07 12:00:00,
2013-12-07 12:42:00,17.0,9.0,30.50,West,270,7.0,-999.0,71,-99.99,,,-99.99,,2013-12-07 12:42:00,
2013-12-07 12:52:00,17.0,9.0,30.50,West,270,7.0,-999.0,71,-99.99,,,-99.99,,2013-12-07 12:52:00,
2013-12-07 13:00:00,18.0,9.0,30.52,WNW,290,8.0,-999.0,68,-99.99,,,-99.99,,2013-12-07 13:00:00,
2013-12-07 13:42:00,18.0,9.0,30.52,WNW,290,8.0,-999.0,68,-99.99,,,-99.99,,2013-12-07 13:42:00,
2013-12-07 13:52:00,18.0,9.0,30.52,WNW,290,8.0,-999.0,68,-99.99,,,-99.99,,2013-12-07 13:52:00,
2013-12-07 14:00:00,19.0,6.0,30.53,WNW,300,13.0,-999.0,56,-99.99,,,-99.99,,2013-12-07 14:00:00,
2013-12-07 14:42:00,19.0,6.0,30.53,WNW,300,13.0,-999.0,56,-99.99,,,-99.99,,2013-12-07 14:42:00,
2013-12-07 14:52:00,19.0,6.0,30.53,WNW,300,13.0,-999.0,56,-99.99,,,-99.99,,2013-12-07 14:52:00,
2013-12-07 15:00:00,20.0,7.0,30.55,West,270,13.0,-999.0,56,-99.99,,,-99.99,,2013-12-07 15:00:00,
2013-12-07 15:43:00,20.0,7.0,30.55,West,270,13.0,-999.0,56,-99.99,,,-99.99,,2013-12-07 15:43:00,
2013-12-07 15:53:00,20.0,7.0,30.55,West,270,13.0,-999.0,56,-99.99,,,-99.99,,2013-12-07 15:53:00,
2013-12-07 16:00:00,20.0,7.0,30.57,West,280,10.0,-999.0,54,-99.99,,,-99.99,,2013-12-07 16:00:00,
2013-12-07 16:42:00,20.0,7.0,30.57,West,280,10.0,-999.0,54,-99.99,,,-99.99,,2013-12-07 16:42:00,
2013-12-07 16:52:00,20.0,7.0,30.57,West,280,10.0,-999.0,54,-99.99,,,-99.99,,2013-12-07 16:52:00,
2013-12-07 17:00:00,21.0,6.0,30.57,West,280,9.0,-999.0,53,-99.99,,,-99.99,,2013-12-07 17:00:00,
2013-12-07 17:42:00,21.0,6.0,30.57,West,280,9.0,-999.0,53,-99.99,,,-99.99,,2013-12-07 17:42:00,
2013-12-07 17:52:00,21.0,6.0,30.57,West,280,9.0,-999.0,53,-99.99,,,-99.99,,2013-12-07 17:52:00,
2013-12-07 18:00:00,22.0,7.0,30.57,West,280,10.0,-999.0,51,-99.99,,,-99.99,,2013-12-07 18:00:00,
2013-12-07 18:43:00,22.0,7.0,30.57,West,280,10.0,-999.0,51,-99.99,,,-99.99,,2013-12-07 18:43:00,
2013-12-07 18:52:00,22.0,7.0,30.57,West,280,10.0,-999.0,51,-99.99,,,-99.99,,2013-12-07 18:52:00,
2013-12-07 19:00:00,23.0,6.0,30.55,West,280,10.0,-999.0,48,-99.99,,,-99.99,,2013-12-07 19:00:00,
2013-12-07 19:42:00,23.0,6.0,30.55,West,280,10.0,-999.0,48,-99.99,,,-99.99,,2013-12-07 19:42:00,
2013-12-07 19:52:00,23.0,6.0,30.55,West,280,10.0,-999.0,48,-99.99,,,-99.99,,2013-12-07 19:52:00,
2013-12-07 20:00:00,23.0,7.0,30.55,WNW,290,7.0,-999.0,48,-99.99,,,-99.99,,2013-12-07 20:00:00,
2013-12-07 20:42:00,23.0,7.0,30.55,WNW,290,7.0,-999.0,48,-99.99,,,-99.99,,2013-12-07 20:42:00,
2013-12-07 20:52:00,23.0,7.0,30.55,WNW,290,7.0,-999.0,48,-99.99,,,-99.99,,2013-12-07 20:52:00,
2013-12-07 21:00:00,24.0,6.0,30.55,West,270,9.0,-999.0,47,-99.99,,,-99.99,,2013-12-07 21:00:00,
2013-12-07 21:43:00,24.0,6.0,30.55,West,270,9.0,-999.0,47,-99.99,,,-99.99,,2013-12-07 21:43:00,
2013-12-07 21:53:00,24.0,6.0,30.55,West,270,9.0,-999.0,47,-99.99,,,-99.99,,2013-12-07 21:53:00,
2013-12-07 22:00:00,22.0,7.0,30.58,West,280,8.0,-999.0,51,-99.99,,,-99.99,,2013-12-07 22:00:00,
2013-12-07 22:42:00,22.0,7.0,30.58,West,280,8.0,-999.0,51,-99.99,,,-99.99,,2013-12-07 22:42:00,
2013-12-07 22:53:00,22.0,7.0,30.58,West,280,8.0,-999.0,51,-99.99,,,-99.99,,2013-12-07 22:53:00,
2013-12-07 23:00:00,21.0,8.0,30.59,West,270,6.0,-999.0,55,-99.99,,,-99.99,,2013-12-07 23:00:00,
2013-12-07 23:42:00,21.0,8.0,30.59,West,270,6.0,-999.0,55,-99.99,,,-99.99,,2013-12-07 23:42:00,
2013-12-07 23:52:00,21.0,8.0,30.59,West,270,6.0,-999.0,55,-99.99,,,-99.99,,2013-12-07 23:52:00,